| time (UTC) | temp F | wind direction | speed MPH | gust MPH | rain 1hr in | rain 24hr in | rain mn in | humidity % | barometer mb |
| 20260504192739 | 66 | 253 | 18.0 | 32.0 | 0.00 | 0.00 | 0.00 | 34 | 1007.5 |
| 20260504192237 | 65 | 260 | 17.0 | 29.0 | 0.00 | 0.00 | 0.00 | 35 | 1007.3 |
| 20260504191735 | 66 | 250 | 19.0 | 29.0 | 0.00 | 0.00 | 0.00 | 35 | 1007.3 |
| 20260504191232 | 66 | 257 | 11.0 | 15.0 | 0.00 | 0.00 | 0.00 | 35 | 1007.6 |
| 20260504190727 | 64 | 241 | 17.0 | 28.0 | 0.00 | 0.00 | 0.00 | 36 | 1007.7 |
| 20260504190224 | 64 | 242 | 15.0 | 32.0 | 0.00 | 0.00 | 0.00 | 36 | 1007.8 |
| 20260504185720 | 65 | 240 | 16.0 | 26.0 | 0.00 | 0.00 | 0.00 | 36 | 1007.7 |
| 20260504185217 | 64 | 262 | 17.0 | 26.0 | 0.00 | 0.00 | 0.00 | 36 | 1007.9 |
| 20260504184713 | 64 | 246 | 18.0 | 32.0 | 0.00 | 0.00 | 0.00 | 36 | 1007.9 |
| 20260504184209 | 64 | 227 | 19.0 | 21.0 | 0.00 | 0.00 | 0.00 | 36 | 1007.7 |
| 20260504183705 | 64 | 269 | 18.0 | 26.0 | 0.00 | 0.00 | 0.00 | 36 | 1007.7 |
| 20260504183202 | 63 | 237 | 26.0 | 31.0 | 0.00 | 0.00 | 0.00 | 37 | 1007.8 |
| 20260504182700 | 63 | 239 | 25.0 | 33.0 | 0.00 | 0.00 | 0.00 | 37 | 1007.9 |
| 20260504182157 | 62 | 262 | 19.0 | 26.0 | 0.00 | 0.00 | 0.00 | 38 | 1007.9 |
| 20260504181655 | 62 | 241 | 17.0 | 23.0 | 0.00 | 0.00 | 0.00 | 38 | 1008.0 |
| 20260504181152 | 62 | 229 | 21.0 | 25.0 | 0.00 | 0.00 | 0.00 | 38 | 1008.1 |
| 20260504180651 | 62 | 265 | 23.0 | 28.0 | 0.00 | 0.00 | 0.00 | 37 | 1008.2 |
| 20260504180149 | 62 | 272 | 10.0 | 23.0 | 0.00 | 0.00 | 0.00 | 39 | 1008.2 |
| 20260504175646 | 62 | 259 | 13.0 | 20.0 | 0.00 | 0.00 | 0.00 | 39 | 1008.4 |
| 20260504175143 | 62 | 249 | 24.0 | 26.0 | 0.00 | 0.00 | 0.00 | 38 | 1008.0 |
| 20260504174641 | 62 | 245 | 23.0 | 30.0 | 0.00 | 0.00 | 0.00 | 38 | 1008.2 |
| 20260504174137 | 62 | 236 | 14.0 | 21.0 | 0.00 | 0.00 | 0.00 | 38 | 1008.2 |
| 20260504173635 | 61 | 238 | 14.0 | 23.0 | 0.00 | 0.00 | 0.00 | 38 | 1008.1 |
| 20260504173132 | 61 | 281 | 21.0 | 31.0 | 0.00 | 0.00 | 0.00 | 38 | 1008.1 |
| 20260504172629 | 61 | 243 | 17.0 | 23.0 | 0.00 | 0.00 | 0.00 | 39 | 1008.1 |
| 20260504172125 | 61 | 235 | 24.0 | 33.0 | 0.00 | 0.00 | 0.00 | 39 | 1008.0 |
| 20260504171621 | 61 | 233 | 22.0 | 30.0 | 0.00 | 0.00 | 0.00 | 39 | 1008.0 |
| 20260504171119 | 61 | 239 | 29.0 | 32.0 | 0.00 | 0.00 | 0.00 | 38 | 1008.2 |
| 20260504170615 | 61 | 247 | 13.0 | 28.0 | 0.00 | 0.00 | 0.00 | 39 | 1008.0 |
| 20260504170113 | 61 | 249 | 15.0 | 34.0 | 0.00 | 0.00 | 0.00 | 39 | 1008.2 |
| 20260504150958 | 59 | 244 | 19.0 | 31.0 | 0.00 | 0.00 | 0.00 | 38 | 1008.6 |
| 20260504150455 | 59 | 233 | 21.0 | 38.0 | 0.00 | 0.00 | 0.00 | 38 | 1008.8 |
| 20260504140922 | 57 | 258 | 26.0 | 29.0 | 0.00 | 0.00 | 0.00 | 41 | 1008.7 |
| 20260504140418 | 57 | 235 | 15.0 | 20.0 | 0.00 | 0.00 | 0.00 | 43 | 1009.1 |
| 20260504130343 | 52 | 215 | 7.0 | 16.0 | 0.00 | 0.00 | 0.00 | 55 | 1009.7 |
| 20260504120306 | 47 | 239 | 4.0 | 8.0 | 0.00 | 0.00 | 0.00 | 64 | 1010.4 |
| 20260504110230 | 43 | 184 | 5.0 | 10.0 | 0.00 | 0.00 | 0.00 | 68 | 1010.8 |
| 20260504100154 | 43 | 175 | 4.0 | 5.0 | 0.00 | 0.00 | 0.00 | 65 | 1010.4 |
| 20260504090116 | 42 | 192 | 5.0 | 8.0 | 0.00 | 0.00 | 0.00 | 63 | 1010.6 |
| 20260504081546 | 42 | 179 | 3.0 | 6.0 | 0.00 | 0.00 | 0.00 | 61 | 1010.4 |
| 20260504081042 | 42 | 203 | 3.0 | 4.0 | 0.00 | 0.00 | 0.00 | 60 | 1010.7 |
| 20260504080539 | 42 | 191 | 4.0 | 5.0 | 0.00 | 0.00 | 0.00 | 61 | 1010.8 |
| 20260504050352 | 41 | 227 | 4.0 | 4.0 | 0.00 | 0.00 | 0.00 | 55 | 1010.5 |
| 20260504045849 | 40 | 267 | 4.0 | 4.0 | 0.00 | 0.00 | 0.00 | 56 | 1010.6 |
| 20260504045350 | 40 | 239 | 2.0 | 5.0 | 0.00 | 0.00 | 0.00 | 56 | 1010.4 |
| 20260504044847 | 41 | 249 | 0.0 | 4.0 | 0.00 | 0.00 | 0.00 | 55 | 1010.3 |
| 20260504044344 | 41 | 253 | 2.0 | 3.0 | 0.00 | 0.00 | 0.00 | 53 | 1010.7 |
| 20260504043841 | 42 | 222 | 2.0 | 5.0 | 0.00 | 0.00 | 0.00 | 50 | 1010.4 |
| 20260504043338 | 42 | 242 | 3.0 | 7.0 | 0.00 | 0.00 | 0.00 | 50 | 1010.5 |
| 20260504042835 | 42 | 231 | 7.0 | 8.0 | 0.00 | 0.00 | 0.00 | 51 | 1010.4 |
| 20260504042332 | 42 | 232 | 9.0 | 9.0 | 0.00 | 0.00 | 0.00 | 50 | 1010.5 |
| 20260504041828 | 42 | 234 | 7.0 | 9.0 | 0.00 | 0.00 | 0.00 | 50 | 1010.4 |
| 20260504041324 | 42 | 242 | 6.0 | 7.0 | 0.00 | 0.00 | 0.00 | 51 | 1010.3 |
| 20260504040821 | 42 | 233 | 5.0 | 9.0 | 0.00 | 0.00 | 0.00 | 50 | 1010.3 |
| 20260504040318 | 42 | 228 | 7.0 | 8.0 | 0.00 | 0.00 | 0.00 | 50 | 1010.4 |
| 20260504035814 | 42 | 219 | 7.0 | 8.0 | 0.00 | 0.00 | 0.00 | 51 | 1010.4 |
| 20260504035312 | 41 | 225 | 6.0 | 8.0 | 0.00 | 0.00 | 0.00 | 52 | 1010.1 |
| 20260504034809 | 41 | 223 | 8.0 | 9.0 | 0.00 | 0.00 | 0.00 | 55 | 1010.1 |
| 20260504034306 | 39 | 223 | 7.0 | 9.0 | 0.00 | 0.00 | 0.00 | 59 | 1010.1 |
| 20260504033803 | 40 | 240 | 8.0 | 9.0 | 0.00 | 0.00 | 0.00 | 59 | 1010.1 |
| 20260504033301 | 40 | 252 | 5.0 | 7.0 | 0.00 | 0.00 | 0.00 | 58 | 1010.4 |
| 20260504032757 | 41 | 241 | 6.0 | 7.0 | 0.00 | 0.00 | 0.00 | 56 | 1010.1 |
| 20260504032254 | 41 | 265 | 5.0 | 7.0 | 0.00 | 0.00 | 0.00 | 55 | 1010.1 |
| 20260504031751 | 42 | 253 | 4.0 | 8.0 | 0.00 | 0.00 | 0.00 | 52 | 1010.0 |
| 20260504031249 | 42 | 204 | 5.0 | 6.0 | 0.00 | 0.00 | 0.00 | 51 | 1010.1 |
| 20260504030744 | 42 | 220 | 6.0 | 6.0 | 0.00 | 0.00 | 0.00 | 50 | 1009.9 |
| 20260504030242 | 43 | 241 | 6.0 | 7.0 | 0.00 | 0.00 | 0.00 | 49 | 1010.1 |
| 20260504025738 | 43 | 239 | 8.0 | 9.0 | 0.00 | 0.00 | 0.00 | 50 | 1010.1 |
| 20260504025235 | 42 | 220 | 9.0 | 10.0 | 0.00 | 0.00 | 0.00 | 52 | 1010.3 |
| 20260504024732 | 42 | 225 | 7.0 | 9.0 | 0.00 | 0.00 | 0.00 | 51 | 1010.0 |
| 20260504024229 | 43 | 242 | 8.0 | 8.0 | 0.00 | 0.00 | 0.00 | 51 | 1010.4 |
| 20260504023726 | 43 | 238 | 7.0 | 8.0 | 0.00 | 0.00 | 0.00 | 51 | 1010.3 |
| 20260504023221 | 43 | 258 | 5.0 | 9.0 | 0.00 | 0.00 | 0.00 | 51 | 1010.0 |
| 20260504022718 | 43 | 240 | 9.0 | 9.0 | 0.00 | 0.00 | 0.00 | 52 | 1010.5 |
| 20260504022214 | 43 | 245 | 7.0 | 8.0 | 0.00 | 0.00 | 0.00 | 51 | 1010.5 |
| 20260504021712 | 43 | 247 | 5.0 | 6.0 | 0.00 | 0.00 | 0.00 | 50 | 1010.4 |
| 20260504021209 | 43 | 236 | 5.0 | 7.0 | 0.00 | 0.00 | 0.00 | 49 | 1010.4 |
| 20260504020705 | 43 | 213 | 4.0 | 6.0 | 0.00 | 0.00 | 0.00 | 50 | 1010.3 |
| 20260504020201 | 44 | 223 | 4.0 | 4.0 | 0.00 | 0.00 | 0.00 | 49 | 1010.3 |
| 20260504015658 | 44 | 245 | 5.0 | 5.0 | 0.00 | 0.00 | 0.00 | 48 | 1010.3 |
| 20260504015154 | 44 | 270 | 2.0 | 4.0 | 0.00 | 0.00 | 0.00 | 48 | 1010.0 |
| 20260504014650 | 44 | 267 | 5.0 | 6.0 | 0.00 | 0.00 | 0.00 | 47 | 1010.3 |
| 20260504014147 | 44 | 178 | 2.0 | 2.0 | 0.00 | 0.00 | 0.00 | 47 | 1010.3 |
| 20260504013645 | 45 | 293 | 2.0 | 8.0 | 0.00 | 0.00 | 0.00 | 46 | 1010.4 |
| 20260504013142 | 44 | 176 | 2.0 | 2.0 | 0.00 | 0.00 | 0.00 | 46 | 1010.4 |
| 20260504012639 | 45 | 201 | 4.0 | 4.0 | 0.00 | 0.00 | 0.00 | 46 | 1010.4 |
| 20260504012137 | 44 | 212 | 2.0 | 3.0 | 0.00 | 0.00 | 0.00 | 46 | 1010.4 |
| 20260504011633 | 44 | 242 | 4.0 | 5.0 | 0.00 | 0.00 | 0.00 | 46 | 1010.0 |
| 20260504011130 | 44 | 212 | 4.0 | 5.0 | 0.00 | 0.00 | 0.00 | 47 | 1010.1 |
| 20260504010626 | 44 | 230 | 4.0 | 5.0 | 0.00 | 0.00 | 0.00 | 47 | 1010.3 |
| 20260504010122 | 44 | 237 | 3.0 | 6.0 | 0.00 | 0.00 | 0.00 | 47 | 1010.1 |
| 20260504005619 | 45 | 239 | 5.0 | 7.0 | 0.00 | 0.00 | 0.00 | 47 | 1010.0 |
| 20260504005116 | 45 | 249 | 4.0 | 5.0 | 0.00 | 0.00 | 0.00 | 47 | 1010.3 |
| 20260504004614 | 44 | 244 | 4.0 | 6.0 | 0.00 | 0.00 | 0.00 | 48 | 1009.8 |
| 20260504004111 | 44 | 256 | 6.0 | 8.0 | 0.00 | 0.00 | 0.00 | 48 | 1009.8 |
| 20260504003607 | 44 | 251 | 6.0 | 6.0 | 0.00 | 0.00 | 0.00 | 48 | 1009.8 |
| 20260504003104 | 44 | 260 | 5.0 | 6.0 | 0.00 | 0.00 | 0.00 | 48 | 1009.8 |
| 20260504002601 | 45 | 265 | 3.0 | 5.0 | 0.00 | 0.00 | 0.00 | 47 | 1009.5 |
| 20260504002058 | 45 | 275 | 5.0 | 6.0 | 0.00 | 0.00 | 0.00 | 47 | 1009.6 |
| 20260504001556 | 45 | 274 | 6.0 | 9.0 | 0.00 | 0.00 | 0.00 | 46 | 1009.7 |
| 20260504001051 | 45 | 284 | 7.0 | 10.0 | 0.00 | 0.00 | 0.00 | 46 | 1009.4 |
| 20260504000549 | 45 | 293 | 8.0 | 12.0 | 0.00 | 0.00 | 0.00 | 46 | 1009.5 |
| 20260504000046 | 45 | 290 | 6.0 | 11.0 | 0.00 | 0.00 | 0.00 | 45 | 1009.4 |
| 20260503235544 | 45 | 269 | 9.0 | 11.0 | 0.00 | 0.00 | 0.00 | 45 | 1009.3 |
| 20260503235041 | 45 | 272 | 8.0 | 10.0 | 0.00 | 0.00 | 0.00 | 45 | 1009.3 |
| 20260503234538 | 46 | 284 | 10.0 | 13.0 | 0.00 | 0.00 | 0.00 | 44 | 1009.1 |
| 20260503234037 | 46 | 295 | 9.0 | 16.0 | 0.00 | 0.00 | 0.00 | 43 | 1009.2 |
| 20260503233533 | 46 | 271 | 12.0 | 14.0 | 0.00 | 0.00 | 0.00 | 43 | 1009.1 |
| 20260503233029 | 46 | 289 | 12.0 | 20.0 | 0.00 | 0.00 | 0.00 | 43 | 1009.2 |
| 20260503232526 | 46 | 298 | 14.0 | 20.0 | 0.00 | 0.00 | 0.00 | 43 | 1009.2 |
| 20260503232024 | 46 | 299 | 12.0 | 17.0 | 0.00 | 0.00 | 0.00 | 43 | 1009.1 |
| 20260503231521 | 46 | 292 | 16.0 | 21.0 | 0.00 | 0.00 | 0.00 | 42 | 1009.0 |
| 20260503231018 | 47 | 301 | 18.0 | 26.0 | 0.00 | 0.00 | 0.00 | 42 | 1008.8 |
| 20260503230514 | 47 | 288 | 24.0 | 25.0 | 0.00 | 0.00 | 0.00 | 41 | 1009.0 |
| 20260503230012 | 47 | 296 | 17.0 | 19.0 | 0.00 | 0.00 | 0.00 | 41 | 1008.8 |
| 20260503225509 | 47 | 294 | 8.0 | 23.0 | 0.00 | 0.00 | 0.00 | 42 | 1008.7 |
| 20260503225004 | 47 | 273 | 12.0 | 20.0 | 0.00 | 0.00 | 0.00 | 42 | 1008.8 |
| 20260503224501 | 46 | 324 | 14.0 | 17.0 | 0.00 | 0.00 | 0.00 | 42 | 1009.0 |
| 20260503223959 | 46 | 301 | 15.0 | 23.0 | 0.00 | 0.00 | 0.00 | 42 | 1009.0 |
| 20260503223457 | 47 | 290 | 16.0 | 28.0 | 0.00 | 0.00 | 0.00 | 42 | 1008.6 |
| 20260503222952 | 46 | 308 | 14.0 | 20.0 | 0.00 | 0.00 | 0.00 | 43 | 1008.6 |
| 20260503222451 | 46 | 305 | 11.0 | 11.0 | 0.00 | 0.00 | 0.00 | 43 | 1009.0 |
| 20260503221948 | 46 | 294 | 13.0 | 22.0 | 0.00 | 0.00 | 0.00 | 42 | 1008.6 |
| 20260503221447 | 46 | 311 | 17.0 | 19.0 | 0.00 | 0.00 | 0.00 | 42 | 1008.6 |
| 20260503220943 | 46 | 309 | 12.0 | 23.0 | 0.00 | 0.00 | 0.00 | 42 | 1008.6 |
| 20260503220439 | 47 | 268 | 19.0 | 27.0 | 0.00 | 0.00 | 0.00 | 41 | 1008.3 |
| 20260503215937 | 47 | 316 | 19.0 | 34.0 | 0.00 | 0.00 | 0.00 | 41 | 1008.2 |
| 20260503215433 | 47 | 280 | 19.0 | 21.0 | 0.00 | 0.00 | 0.00 | 42 | 1008.4 |
| 20260503214931 | 47 | 304 | 22.0 | 24.0 | 0.00 | 0.00 | 0.00 | 42 | 1008.5 |
| 20260503214429 | 47 | 278 | 16.0 | 21.0 | 0.00 | 0.00 | 0.00 | 42 | 1008.3 |
| 20260503213926 | 48 | 287 | 26.0 | 27.0 | 0.00 | 0.00 | 0.00 | 41 | 1008.2 |
| 20260503213424 | 47 | 276 | 11.0 | 21.0 | 0.00 | 0.00 | 0.00 | 43 | 1008.5 |
| 20260503212920 | 47 | 288 | 6.0 | 11.0 | 0.00 | 0.00 | 0.00 | 43 | 1008.4 |
| 20260503212418 | 47 | 301 | 19.0 | 27.0 | 0.00 | 0.00 | 0.00 | 42 | 1008.3 |
| 20260503211915 | 48 | 292 | 11.0 | 17.0 | 0.00 | 0.00 | 0.00 | 43 | 1008.5 |
| 20260503211412 | 47 | 286 | 10.0 | 15.0 | 0.00 | 0.00 | 0.00 | 43 | 1008.2 |
| 20260503210907 | 47 | 310 | 25.0 | 26.0 | 0.00 | 0.00 | 0.00 | 43 | 1008.2 |
| 20260503210405 | 47 | 288 | 11.0 | 20.0 | 0.00 | 0.00 | 0.00 | 43 | 1008.3 |
| 20260503205904 | 46 | 316 | 10.0 | 15.0 | 0.00 | 0.00 | 0.00 | 44 | 1008.3 |
| 20260503205402 | 46 | 303 | 10.0 | 21.0 | 0.00 | 0.00 | 0.00 | 45 | 1008.3 |
| 20260503204858 | 46 | 316 | 10.0 | 17.0 | 0.00 | 0.00 | 0.00 | 45 | 1008.1 |
| 20260503204356 | 46 | 350 | 9.0 | 19.0 | 0.00 | 0.00 | 0.00 | 44 | 1008.2 |
| 20260503203853 | 46 | 313 | 17.0 | 25.0 | 0.00 | 0.00 | 0.00 | 43 | 1008.2 |
| 20260503203350 | 47 | 282 | 12.0 | 25.0 | 0.00 | 0.00 | 0.00 | 42 | 1008.1 |
| 20260503202846 | 48 | 278 | 17.0 | 24.0 | 0.00 | 0.00 | 0.00 | 41 | 1007.9 |
| 20260503202345 | 48 | 297 | 22.0 | 27.0 | 0.00 | 0.00 | 0.00 | 40 | 1008.0 |
| 20260503201843 | 48 | 317 | 23.0 | 25.0 | 0.00 | 0.00 | 0.00 | 40 | 1007.8 |
| 20260503201339 | 48 | 253 | 16.0 | 23.0 | 0.00 | 0.00 | 0.00 | 40 | 1007.7 |
| 20260503200837 | 47 | 284 | 19.0 | 29.0 | 0.00 | 0.00 | 0.00 | 40 | 1007.9 |
| 20260503200332 | 48 | 259 | 16.0 | 26.0 | 0.00 | 0.00 | 0.00 | 40 | 1007.7 |
| 20260503195830 | 48 | 308 | 13.0 | 22.0 | 0.00 | 0.00 | 0.00 | 41 | 1007.7 |
| 20260503195326 | 48 | 261 | 17.0 | 30.0 | 0.00 | 0.00 | 0.00 | 39 | 1007.6 |
| 20260503194824 | 48 | 303 | 17.0 | 22.0 | 0.00 | 0.00 | 0.00 | 40 | 1007.8 |
| 20260503194320 | 48 | 311 | 20.0 | 21.0 | 0.00 | 0.00 | 0.00 | 40 | 1007.8 |
| 20260503193816 | 48 | 288 | 21.0 | 27.0 | 0.00 | 0.00 | 0.00 | 41 | 1008.0 |
| 20260503193312 | 48 | 306 | 18.0 | 31.0 | 0.00 | 0.00 | 0.00 | 39 | 1007.8 |